Location: Fiennes
(50.8274°N, 1.8253°E)
Time: 23:49:00
(UTC+00:00)

Cosmos 1302 Rocket - Pass Details

Date: 15 May 2026
Orbit: 751 x 772 km, 74.0° (Epoch: 11 June)

Event Time Altitude Azimuth Distance (km) Brightness Sun altitude
Rises 20:10:28 0° 202° (SSW) 3,190 7.0 -5.3°
Reaches altitude 10° 20:12:49 10° 202° (SSW) 2,271 6.3 -5.6°
Maximum altitude 20:17:58 88° 112° (ESE) 762 4.0 -6.2°
Drops below altitude 10° 20:23:11 10° 25° (NNE) 2,297 6.7 -6.8°
Sets 20:25:34 0° 25° (NNE) 3,229 7.5 -7.1°
